TimePST,TemperatureF,Dew PointF,Humidity,Sea Level PressureIn,VisibilityMPH,Wind Direction,Wind SpeedMPH,Gust SpeedMPH,PrecipitationIn,Events,Conditions,WindDirDegrees,DateUTC
12:53 AM,43.0,24.1,47,30.04,10.0,NNW,9.2,-,N/A,,Clear,340,2013-02-09 08:53:00
1:53 AM,44.1,24.1,45,30.05,10.0,NNW,6.9,17.3,N/A,,Clear,340,2013-02-09 09:53:00
2:53 AM,44.1,23.0,43,30.05,10.0,North,10.4,-,N/A,,Clear,350,2013-02-09 10:53:00
3:53 AM,43.0,23.0,45,30.04,10.0,North,8.1,-,N/A,,Clear,350,2013-02-09 11:53:00
4:53 AM,37.9,25.0,60,30.04,10.0,WNW,4.6,-,N/A,,Clear,290,2013-02-09 12:53:00
5:53 AM,41.0,23.0,49,30.06,10.0,WNW,6.9,-,N/A,,Clear,300,2013-02-09 13:53:00
6:53 AM,42.1,21.9,45,30.07,10.0,NNW,9.2,-,N/A,,Clear,340,2013-02-09 14:53:00
7:53 AM,42.1,21.9,45,30.09,10.0,NNW,6.9,-,N/A,,Clear,330,2013-02-09 15:53:00
8:53 AM,46.0,23.0,40,30.10,10.0,North,13.8,-,N/A,,Clear,10,2013-02-09 16:53:00
9:53 AM,48.9,21.0,33,30.10,10.0,North,15.0,-,N/A,,Clear,360,2013-02-09 17:53:00
10:53 AM,51.1,21.0,31,30.11,10.0,NNE,15.0,-,N/A,,Clear,20,2013-02-09 18:53:00
11:53 AM,53.1,21.0,29,30.09,10.0,NNE,13.8,-,N/A,,Clear,30,2013-02-09 19:53:00
12:53 PM,55.0,21.0,27,30.06,10.0,NNE,12.7,-,N/A,,Clear,20,2013-02-09 20:53:00
1:53 PM,57.0,23.0,27,30.05,10.0,NNE,10.4,-,N/A,,Clear,30,2013-02-09 21:53:00
2:53 PM,59.0,23.0,25,30.02,10.0,NNE,10.4,-,N/A,,Clear,20,2013-02-09 22:53:00
3:53 PM,59.0,23.0,25,30.02,10.0,NNE,5.8,-,N/A,,Clear,30,2013-02-09 23:53:00
4:53 PM,57.9,24.1,27,30.02,10.0,NNE,8.1,-,N/A,,Clear,30,2013-02-10 00:53:00
5:53 PM,51.1,26.1,38,30.04,10.0,Calm,Calm,-,N/A,,Clear,0,2013-02-10 01:53:00
6:53 PM,51.1,24.1,35,30.06,10.0,North,4.6,-,N/A,,Clear,360,2013-02-10 02:53:00
7:53 PM,48.0,26.1,42,30.06,10.0,NW,6.9,-,N/A,,Clear,320,2013-02-10 03:53:00
8:53 PM,48.9,28.0,44,30.07,10.0,NNW,6.9,-,N/A,,Clear,330,2013-02-10 04:53:00
9:53 PM,48.9,28.0,44,30.08,10.0,NNW,5.8,-,N/A,,Clear,340,2013-02-10 05:53:00
10:53 PM,43.0,30.0,60,30.09,10.0,NNW,5.8,-,N/A,,Clear,340,2013-02-10 06:53:00
11:53 PM,41.0,28.9,62,30.11,10.0,NW,5.8,-,N/A,,Clear,310,2013-02-10 07:53:00